Time,TemperatureF,DewpointF,PressureIn,WindDirection,WindDirectionDegrees,WindSpeedMPH,WindSpeedGustMPH,Humidity,HourlyPrecipIn,Conditions,Clouds,dailyrainin,SoftwareType,DateUTC
2013-07-08 00:00:00,68.5,66.9,30.14,WSW,237,0.0,0.0,95,0.00,,---,0.00,VWS V14.01,2013-07-08 04:00:00,
2013-07-08 00:01:00,68.5,66.9,30.14,WSW,237,0.0,0.0,95,0.00,,---,0.00,VWS V14.01,2013-07-08 04:01:00,
2013-07-08 00:04:00,68.5,66.9,30.14,WSW,237,0.0,0.0,95,0.00,,---,0.00,VWS V14.01,2013-07-08 04:04:00,
2013-07-08 00:09:00,68.5,66.9,30.14,SSE,149,3.2,3.2,95,0.00,,---,0.00,VWS V14.01,2013-07-08 04:09:00,
2013-07-08 00:14:00,68.5,66.9,30.14,SE,128,0.0,3.2,95,0.00,,---,0.00,VWS V14.01,2013-07-08 04:14:00,
2013-07-08 00:19:00,68.5,66.9,30.14,SE,129,0.0,0.0,95,0.00,,---,0.00,VWS V14.01,2013-07-08 04:19:00,
2013-07-08 00:24:00,68.5,67.3,30.14,SE,129,0.0,0.0,96,0.00,,---,0.00,VWS V14.01,2013-07-08 04:24:00,
2013-07-08 00:29:00,68.5,67.3,30.14,SE,129,0.0,0.0,96,0.00,,---,0.00,VWS V14.01,2013-07-08 04:29:00,
2013-07-08 00:35:00,68.5,67.3,30.14,SE,129,0.0,0.0,96,0.00,,---,0.00,VWS V14.01,2013-07-08 04:35:00,
2013-07-08 00:40:00,68.5,67.3,30.14,SE,129,0.0,0.0,96,0.00,,---,0.00,VWS V14.01,2013-07-08 04:40:00,
2013-07-08 00:45:00,68.4,67.2,30.14,SE,130,0.0,0.0,96,0.00,,---,0.00,VWS V14.01,2013-07-08 04:45:00,
2013-07-08 00:50:00,68.4,67.2,30.14,SE,129,0.0,0.0,96,0.00,,---,0.00,VWS V14.01,2013-07-08 04:50:00,
2013-07-08 00:55:00,68.4,67.2,30.14,SE,130,0.0,0.0,96,0.00,,---,0.00,VWS V14.01,2013-07-08 04:55:00,
2013-07-08 01:00:00,68.4,67.2,30.14,SE,129,0.0,0.0,96,0.00,,---,0.00,VWS V14.01,2013-07-08 05:00:00,
2013-07-08 01:05:00,68.4,67.2,30.14,SE,129,0.0,0.0,96,0.04,,---,0.04,VWS V14.01,2013-07-08 05:05:00,
2013-07-08 01:10:00,68.4,67.2,30.14,SE,125,4.5,4.5,96,0.04,,---,0.04,VWS V14.01,2013-07-08 05:10:00,
2013-07-08 01:15:00,68.4,67.2,30.14,SE,131,3.9,5.8,96,0.04,,---,0.04,VWS V14.01,2013-07-08 05:15:00,
2013-07-08 01:21:00,68.4,67.2,30.14,SE,133,0.0,0.0,96,0.04,,---,0.04,VWS V14.01,2013-07-08 05:21:00,
2013-07-08 01:26:00,68.2,67.0,30.14,SE,133,0.0,0.0,96,0.04,,---,0.04,VWS V14.01,2013-07-08 05:26:00,
2013-07-08 01:31:00,68.2,67.0,30.14,SE,133,0.0,0.0,96,0.04,,---,0.04,VWS V14.01,2013-07-08 05:31:00,
2013-07-08 01:36:00,68.2,67.4,30.14,SSE,150,0.0,3.2,97,0.04,,---,0.04,VWS V14.01,2013-07-08 05:36:00,
2013-07-08 01:41:00,68.0,67.2,30.14,SSE,150,0.0,0.0,97,0.04,,---,0.04,VWS V14.01,2013-07-08 05:41:00,
2013-07-08 01:46:00,68.0,67.2,30.16,SSE,150,0.0,0.0,97,0.04,,---,0.04,VWS V14.01,2013-07-08 05:46:00,
2013-07-08 01:51:00,68.0,67.2,30.16,SSE,150,0.0,0.0,97,0.04,,---,0.04,VWS V14.01,2013-07-08 05:51:00,
2013-07-08 01:56:00,68.0,67.2,30.16,SE,140,0.0,0.0,97,0.04,,---,0.04,VWS V14.01,2013-07-08 05:56:00,
2013-07-08 02:02:00,68.0,67.2,30.14,SE,137,4.5,5.2,97,0.04,,---,0.04,VWS V14.01,2013-07-08 06:02:00,
2013-07-08 02:07:00,67.8,67.0,30.14,SE,145,3.2,3.2,97,0.00,,---,0.04,VWS V14.01,2013-07-08 06:07:00,
2013-07-08 02:12:00,67.8,67.0,30.14,SSE,152,0.0,3.2,97,0.00,,---,0.04,VWS V14.01,2013-07-08 06:12:00,
2013-07-08 02:17:00,67.8,67.4,30.14,SE,144,5.8,5.8,99,0.00,,---,0.04,VWS V14.01,2013-07-08 06:17:00,
2013-07-08 02:22:00,67.8,67.4,30.14,SE,143,3.9,4.5,99,0.00,,---,0.04,VWS V14.01,2013-07-08 06:22:00,
2013-07-08 02:27:00,67.8,67.4,30.14,SE,142,0.0,0.0,99,0.00,,---,0.04,VWS V14.01,2013-07-08 06:27:00,
2013-07-08 02:32:00,67.8,67.4,30.14,SE,142,0.0,0.0,99,0.00,,---,0.04,VWS V14.01,2013-07-08 06:32:00,
2013-07-08 02:37:00,67.8,67.4,30.14,SE,143,0.0,0.0,99,0.00,,---,0.04,VWS V14.01,2013-07-08 06:37:00,
2013-07-08 02:42:00,67.8,67.4,30.14,SE,146,0.0,0.0,99,0.00,,---,0.04,VWS V14.01,2013-07-08 06:42:00,
2013-07-08 02:47:00,67.8,67.4,30.14,SSE,155,4.5,4.5,99,0.00,,---,0.04,VWS V14.01,2013-07-08 06:47:00,
2013-07-08 02:52:00,67.8,67.4,30.14,SSE,152,0.0,0.0,99,0.00,,---,0.04,VWS V14.01,2013-07-08 06:52:00,
2013-07-08 02:58:00,67.8,67.4,30.14,SSE,152,3.9,3.9,99,0.00,,---,0.04,VWS V14.01,2013-07-08 06:58:00,
2013-07-08 03:03:00,67.6,67.3,30.14,SSE,152,0.0,0.0,99,0.00,,---,0.04,VWS V14.01,2013-07-08 07:03:00,
2013-07-08 03:08:00,67.6,67.3,30.14,SSE,165,0.0,0.0,99,0.00,,---,0.04,VWS V14.01,2013-07-08 07:08:00,
2013-07-08 03:13:00,67.6,67.3,30.14,SSE,162,0.0,3.2,99,0.00,,---,0.04,VWS V14.01,2013-07-08 07:13:00,
2013-07-08 03:18:00,67.5,67.1,30.14,SE,145,0.0,3.2,99,0.00,,---,0.04,VWS V14.01,2013-07-08 07:18:00,
2013-07-08 03:23:00,67.3,66.9,30.14,SSE,157,0.0,0.0,99,0.00,,---,0.04,VWS V14.01,2013-07-08 07:23:00,
2013-07-08 03:28:00,67.1,66.7,30.14,SSE,150,0.0,0.0,99,0.00,,---,0.04,VWS V14.01,2013-07-08 07:28:00,
2013-07-08 03:33:00,67.1,66.7,30.14,SSE,150,0.0,0.0,99,0.00,,---,0.04,VWS V14.01,2013-07-08 07:33:00,
2013-07-08 03:38:00,67.1,66.7,30.14,SSE,150,0.0,0.0,99,0.00,,---,0.04,VWS V14.01,2013-07-08 07:38:00,
2013-07-08 03:43:00,66.9,66.5,30.14,SSE,150,0.0,0.0,99,0.00,,---,0.04,VWS V14.01,2013-07-08 07:43:00,
2013-07-08 03:49:00,66.9,66.5,30.14,SSE,150,0.0,0.0,99,0.00,,---,0.04,VWS V14.01,2013-07-08 07:49:00,
2013-07-08 03:54:00,66.7,66.4,30.14,SSE,150,0.0,0.0,99,0.00,,---,0.04,VWS V14.01,2013-07-08 07:54:00,
2013-07-08 03:59:00,66.7,66.4,30.14,SSE,150,0.0,0.0,99,0.00,,---,0.04,VWS V14.01,2013-07-08 07:59:00,
2013-07-08 04:04:00,66.6,66.2,30.14,SSE,150,0.0,0.0,99,0.00,,---,0.04,VWS V14.01,2013-07-08 08:04:00,
2013-07-08 04:09:00,66.6,66.2,30.14,SSE,150,0.0,0.0,99,0.00,,---,0.04,VWS V14.01,2013-07-08 08:09:00,
2013-07-08 04:14:00,66.4,66.0,30.14,SSE,150,0.0,0.0,99,0.00,,---,0.04,VWS V14.01,2013-07-08 08:14:00,
2013-07-08 04:19:00,66.2,65.8,30.14,SSE,160,0.0,0.0,99,0.00,,---,0.04,VWS V14.01,2013-07-08 08:19:00,
2013-07-08 04:24:00,66.0,66.0,30.14,SE,140,3.9,4.5,100,0.00,,---,0.04,VWS V14.01,2013-07-08 08:24:00,
2013-07-08 04:30:00,66.0,66.0,30.14,SE,142,3.9,3.9,100,0.00,,---,0.04,VWS V14.01,2013-07-08 08:30:00,
2013-07-08 04:35:00,65.8,65.8,30.14,SSE,158,0.0,0.0,100,0.00,,---,0.04,VWS V14.01,2013-07-08 08:35:00,
2013-07-08 04:40:00,65.7,65.7,30.14,SE,145,0.0,0.0,100,0.00,,---,0.04,VWS V14.01,2013-07-08 08:40:00,
2013-07-08 04:45:00,65.7,65.7,30.14,SE,145,0.0,0.0,100,0.00,,---,0.04,VWS V14.01,2013-07-08 08:45:00,
2013-07-08 04:50:00,65.7,65.7,30.14,SE,145,0.0,0.0,100,0.00,,---,0.04,VWS V14.01,2013-07-08 08:50:00,
2013-07-08 04:55:00,65.5,65.5,30.14,SE,146,0.0,0.0,100,0.00,,---,0.04,VWS V14.01,2013-07-08 08:55:00,
2013-07-08 05:00:00,65.5,65.5,30.14,SSE,154,0.0,0.0,100,0.00,,---,0.04,VWS V14.01,2013-07-08 09:00:00,
2013-07-08 05:05:00,65.3,65.3,30.14,SSE,149,3.2,3.2,100,0.00,,---,0.04,VWS V14.01,2013-07-08 09:05:00,
2013-07-08 05:11:00,65.1,65.1,30.14,SSE,149,0.0,0.0,100,0.00,,---,0.04,VWS V14.01,2013-07-08 09:11:00,
2013-07-08 05:16:00,65.1,65.1,30.14,SSE,148,3.9,3.9,100,0.00,,---,0.04,VWS V14.01,2013-07-08 09:16:00,
2013-07-08 05:21:00,64.9,64.9,30.14,SSE,149,3.9,3.9,100,0.00,,---,0.04,VWS V14.01,2013-07-08 09:21:00,
2013-07-08 05:26:00,64.9,64.9,30.14,SE,133,3.9,4.5,100,0.00,,---,0.04,VWS V14.01,2013-07-08 09:26:00,
2013-07-08 05:31:00,64.9,64.9,30.14,SE,134,0.0,0.0,100,0.00,,---,0.04,VWS V14.01,2013-07-08 09:31:00,
2013-07-08 05:36:00,64.8,64.8,30.14,SE,134,0.0,0.0,100,0.00,,---,0.04,VWS V14.01,2013-07-08 09:36:00,
2013-07-08 05:41:00,64.8,64.8,30.14,SE,136,0.0,0.0,100,0.00,,---,0.04,VWS V14.01,2013-07-08 09:41:00,
2013-07-08 05:46:00,64.8,64.8,30.16,SE,136,0.0,0.0,100,0.00,,---,0.04,VWS V14.01,2013-07-08 09:46:00,
2013-07-08 05:51:00,64.8,64.8,30.16,SE,136,0.0,0.0,100,0.00,,---,0.04,VWS V14.01,2013-07-08 09:51:00,
2013-07-08 05:57:00,64.6,64.6,30.16,SE,136,0.0,0.0,100,0.00,,---,0.04,VWS V14.01,2013-07-08 09:57:00,
2013-07-08 06:02:00,64.6,64.6,30.16,SE,136,3.2,3.9,100,0.00,,---,0.04,VWS V14.01,2013-07-08 10:02:00,
2013-07-08 06:07:00,64.6,64.6,30.16,SE,136,0.0,0.0,100,0.00,,---,0.04,VWS V14.01,2013-07-08 10:07:00,
2013-07-08 06:12:00,64.4,64.4,30.16,SE,136,0.0,0.0,100,0.00,,---,0.04,VWS V14.01,2013-07-08 10:12:00,
2013-07-08 06:17:00,64.4,64.4,30.16,SE,138,0.0,0.0,100,0.00,,---,0.04,VWS V14.01,2013-07-08 10:17:00,
2013-07-08 06:22:00,64.2,64.2,30.16,SE,138,0.0,0.0,100,0.00,,---,0.04,VWS V14.01,2013-07-08 10:22:00,
2013-07-08 06:27:00,64.2,64.2,30.16,SE,138,0.0,0.0,100,0.00,,---,0.04,VWS V14.01,2013-07-08 10:27:00,
2013-07-08 06:32:00,64.2,64.2,30.16,SE,138,0.0,0.0,100,0.00,,---,0.04,VWS V14.01,2013-07-08 10:32:00,
2013-07-08 06:37:00,64.2,64.2,30.16,SE,140,0.0,0.0,100,0.00,,---,0.04,VWS V14.01,2013-07-08 10:37:00,
2013-07-08 06:42:00,64.2,64.2,30.16,SE,140,0.0,0.0,100,0.00,,---,0.04,VWS V14.01,2013-07-08 10:42:00,
2013-07-08 06:48:00,64.2,64.2,30.16,SE,140,0.0,0.0,100,0.00,,---,0.04,VWS V14.01,2013-07-08 10:48:00,
2013-07-08 06:53:00,64.2,64.2,30.16,SE,140,0.0,0.0,100,0.00,,---,0.04,VWS V14.01,2013-07-08 10:53:00,
2013-07-08 06:58:00,64.2,64.2,30.16,SE,141,3.9,3.9,100,0.00,,---,0.04,VWS V14.01,2013-07-08 10:58:00,
2013-07-08 07:03:00,64.4,64.4,30.16,SE,141,0.0,0.0,100,0.00,,---,0.04,VWS V14.01,2013-07-08 11:03:00,
2013-07-08 07:08:00,64.4,64.4,30.16,SE,141,0.0,0.0,100,0.00,,---,0.04,VWS V14.01,2013-07-08 11:08:00,
2013-07-08 07:13:00,64.4,64.4,30.16,SE,141,0.0,0.0,100,0.00,,---,0.04,VWS V14.01,2013-07-08 11:13:00,
2013-07-08 07:19:00,64.6,64.6,30.16,SE,141,0.0,0.0,100,0.00,,---,0.04,VWS V14.01,2013-07-08 11:19:00,
2013-07-08 07:25:00,64.8,64.8,30.16,SE,143,0.0,3.2,100,0.00,,---,0.04,VWS V14.01,2013-07-08 11:25:00,
2013-07-08 07:30:00,64.9,64.9,30.16,SE,143,0.0,0.0,100,0.00,,---,0.04,VWS V14.01,2013-07-08 11:30:00,
2013-07-08 07:35:00,65.1,65.1,30.16,SE,143,0.0,0.0,100,0.00,,---,0.04,VWS V14.01,2013-07-08 11:35:00,
2013-07-08 07:40:00,65.5,65.5,30.16,SE,144,0.0,0.0,100,0.00,,---,0.04,VWS V14.01,2013-07-08 11:40:00,
2013-07-08 07:45:00,65.7,65.7,30.16,SE,144,0.0,0.0,100,0.00,,---,0.04,VWS V14.01,2013-07-08 11:45:00,
2013-07-08 07:50:00,65.8,65.8,30.16,SE,144,0.0,0.0,100,0.00,,---,0.04,VWS V14.01,2013-07-08 11:50:00,
2013-07-08 07:55:00,66.2,66.2,30.16,SW,221,0.0,0.0,100,0.00,,---,0.04,VWS V14.01,2013-07-08 11:55:00,
2013-07-08 08:01:00,66.6,66.6,30.16,SSW,205,0.0,0.0,100,0.00,,---,0.04,VWS V14.01,2013-07-08 12:01:00,
2013-07-08 08:06:00,66.9,66.9,30.16,WSW,255,0.0,0.0,100,0.00,,---,0.04,VWS V14.01,2013-07-08 12:06:00,
2013-07-08 08:11:00,67.1,67.1,30.16,WSW,255,0.0,0.0,100,0.00,,---,0.04,VWS V14.01,2013-07-08 12:11:00,
2013-07-08 08:16:00,67.3,67.3,30.16,WSW,254,0.0,0.0,100,0.00,,---,0.04,VWS V14.01,2013-07-08 12:16:00,
2013-07-08 08:21:00,67.5,67.5,30.16,WSW,255,0.0,0.0,100,0.00,,---,0.04,VWS V14.01,2013-07-08 12:21:00,
2013-07-08 08:26:00,67.5,67.5,30.16,WNW,300,0.0,0.0,100,0.00,,---,0.04,VWS V14.01,2013-07-08 12:26:00,
2013-07-08 08:31:00,67.8,67.8,30.16,WNW,283,0.0,0.0,100,0.00,,---,0.04,VWS V14.01,2013-07-08 12:31:00,
2013-07-08 08:36:00,68.0,68.0,30.16,SW,234,0.0,0.0,100,0.00,,---,0.04,VWS V14.01,2013-07-08 12:36:00,
2013-07-08 08:42:00,68.4,68.4,30.16,WNW,303,0.0,0.0,100,0.00,,---,0.04,VWS V14.01,2013-07-08 12:42:00,
2013-07-08 08:47:00,68.5,68.5,30.16,NW,307,0.0,0.0,100,0.00,,---,0.04,VWS V14.01,2013-07-08 12:47:00,
2013-07-08 08:52:00,68.9,68.9,30.16,West,268,0.0,0.0,100,0.00,,---,0.04,VWS V14.01,2013-07-08 12:52:00,
2013-07-08 08:57:00,68.9,68.9,30.16,SW,230,0.0,0.0,100,0.00,,---,0.04,VWS V14.01,2013-07-08 12:57:00,
2013-07-08 09:02:00,69.1,69.1,30.16,SW,224,4.5,4.5,100,0.00,,---,0.04,VWS V14.01,2013-07-08 13:02:00,
2013-07-08 09:07:00,69.1,69.1,30.16,West,268,0.0,0.0,100,0.00,,---,0.04,VWS V14.01,2013-07-08 13:07:00,
2013-07-08 09:12:00,69.4,69.4,30.16,NNW,344,0.0,0.0,100,0.00,,---,0.04,VWS V14.01,2013-07-08 13:12:00,
2013-07-08 09:18:00,69.8,69.8,30.16,WSW,241,0.0,0.0,100,0.00,,---,0.04,VWS V14.01,2013-07-08 13:18:00,
2013-07-08 09:23:00,70.2,70.2,30.16,North,353,0.0,3.2,100,0.00,,---,0.04,VWS V14.01,2013-07-08 13:23:00,
2013-07-08 09:28:00,70.5,70.5,30.16,North,0,7.1,7.1,100,0.00,,---,0.04,VWS V14.01,2013-07-08 13:28:00,
2013-07-08 09:33:00,71.2,71.2,30.16,NNW,341,0.0,0.0,100,0.00,,---,0.04,VWS V14.01,2013-07-08 13:33:00,
2013-07-08 09:38:00,73.0,73.1,30.16,NNE,33,0.0,0.0,100,0.00,,---,0.04,VWS V14.01,2013-07-08 13:38:00,
2013-07-08 09:43:00,74.3,74.3,30.16,WSW,258,4.5,5.2,100,0.00,,---,0.04,VWS V14.01,2013-07-08 13:43:00,
2013-07-08 09:48:00,75.0,75.0,30.16,NNE,30,3.2,5.2,100,0.00,,---,0.04,VWS V14.01,2013-07-08 13:48:00,
2013-07-08 09:54:00,75.2,75.2,30.16,North,357,7.8,7.8,100,0.00,,---,0.04,VWS V14.01,2013-07-08 13:54:00,
2013-07-08 09:59:00,74.8,74.8,30.16,NNW,346,5.2,7.1,100,0.00,,---,0.04,VWS V14.01,2013-07-08 13:59:00,
2013-07-08 10:04:00,74.8,74.4,30.16,North,353,5.2,5.2,99,0.00,,---,0.04,VWS V14.01,2013-07-08 14:04:00,
2013-07-08 10:09:00,75.7,75.3,30.16,NNW,339,4.5,4.5,99,0.00,,---,0.04,VWS V14.01,2013-07-08 14:09:00,
2013-07-08 10:14:00,76.6,74.5,30.19,North,3,3.9,5.2,93,0.00,,---,0.04,VWS V14.01,2013-07-08 14:14:00,
2013-07-08 10:19:00,78.1,75.5,30.19,NNE,20,0.0,3.2,92,0.00,,---,0.04,VWS V14.01,2013-07-08 14:19:00,
2013-07-08 10:24:00,78.8,74.8,30.19,North,357,7.1,7.8,88,0.00,,---,0.04,VWS V14.01,2013-07-08 14:24:00,
2013-07-08 10:30:00,79.2,74.2,30.19,West,273,0.0,5.2,85,0.00,,---,0.04,VWS V14.01,2013-07-08 14:30:00,
2013-07-08 10:35:00,79.2,73.7,30.19,North,0,5.2,5.2,83,0.00,,---,0.04,VWS V14.01,2013-07-08 14:35:00,
2013-07-08 10:40:00,79.2,73.7,30.19,WSW,257,3.2,5.2,83,0.00,,---,0.04,VWS V14.01,2013-07-08 14:40:00,
2013-07-08 10:45:00,78.6,71.1,30.19,NW,321,5.8,5.8,78,0.00,,---,0.04,VWS V14.01,2013-07-08 14:45:00,
2013-07-08 10:50:00,78.3,71.3,30.19,North,353,0.0,3.9,79,0.00,,---,0.04,VWS V14.01,2013-07-08 14:50:00,
2013-07-08 10:55:00,77.9,70.9,30.19,North,353,3.9,3.9,79,0.00,,---,0.04,VWS V14.01,2013-07-08 14:55:00,
2013-07-08 11:00:00,77.4,69.4,30.19,NNW,343,0.0,3.2,76,0.00,,---,0.04,VWS V14.01,2013-07-08 15:00:00,
2013-07-08 11:05:00,77.0,68.5,30.19,North,0,4.5,4.5,75,0.00,,---,0.04,VWS V14.01,2013-07-08 15:05:00,
2013-07-08 11:10:00,76.8,68.9,30.19,North,7,7.8,7.8,76,0.00,,---,0.04,VWS V14.01,2013-07-08 15:10:00,
2013-07-08 11:15:00,76.8,68.3,30.19,North,353,3.2,3.9,75,0.00,,---,0.04,VWS V14.01,2013-07-08 15:15:00,
2013-07-08 11:21:00,76.8,67.2,30.19,North,357,0.0,7.1,72,0.00,,---,0.04,VWS V14.01,2013-07-08 15:21:00,
2013-07-08 11:26:00,76.6,66.5,30.19,NNW,341,0.0,0.0,71,0.00,,---,0.04,VWS V14.01,2013-07-08 15:26:00,
2013-07-08 11:31:00,76.6,67.1,30.19,NW,318,0.0,0.0,72,0.00,,---,0.04,VWS V14.01,2013-07-08 15:31:00,
2013-07-08 11:36:00,77.2,67.6,30.19,North,0,8.4,8.4,72,0.00,,---,0.04,VWS V14.01,2013-07-08 15:36:00,
2013-07-08 11:41:00,77.7,68.1,30.19,SW,223,5.8,5.8,72,0.00,,---,0.04,VWS V14.01,2013-07-08 15:41:00,
2013-07-08 11:46:00,78.3,68.1,30.19,WNW,284,3.2,4.5,71,0.00,,---,0.04,VWS V14.01,2013-07-08 15:46:00,
2013-07-08 11:51:00,78.3,66.9,30.19,NW,306,0.0,0.0,68,0.00,,---,0.04,VWS V14.01,2013-07-08 15:51:00,
2013-07-08 11:57:00,78.6,67.2,30.19,North,353,3.9,7.8,68,0.00,,---,0.04,VWS V14.01,2013-07-08 15:57:00,
2013-07-08 12:02:00,79.0,64.5,30.19,West,265,0.0,0.0,61,0.00,,---,0.00,VWS V14.01,2013-07-08 16:02:00,
2013-07-08 12:07:00,79.0,65.1,30.19,NNW,332,3.9,5.8,63,0.00,,---,0.04,VWS V14.01,2013-07-08 16:07:00,
2013-07-08 12:12:00,78.8,63.7,30.19,North,11,0.0,4.5,60,0.00,,---,0.04,VWS V14.01,2013-07-08 16:12:00,
2013-07-08 12:17:00,78.6,64.8,30.19,North,7,3.9,3.9,63,0.00,,---,0.04,VWS V14.01,2013-07-08 16:17:00,
2013-07-08 12:22:00,78.8,64.9,30.19,SSW,212,0.0,5.8,63,0.00,,---,0.04,VWS V14.01,2013-07-08 16:22:00,
2013-07-08 12:27:00,79.2,64.0,30.19,North,353,0.0,0.0,60,0.00,,---,0.04,VWS V14.01,2013-07-08 16:27:00,
2013-07-08 12:32:00,79.3,64.2,30.19,WSW,256,0.0,5.8,60,0.00,,---,0.04,VWS V14.01,2013-07-08 16:32:00,
2013-07-08 12:37:00,79.3,62.8,30.19,North,357,7.8,9.7,57,0.00,,---,0.04,VWS V14.01,2013-07-08 16:37:00,
2013-07-08 12:42:00,79.3,62.8,30.19,NNW,345,5.8,5.8,57,0.00,,---,0.04,VWS V14.01,2013-07-08 16:42:00,
2013-07-08 12:47:00,79.0,62.5,30.19,North,357,5.2,5.2,57,0.00,,---,0.04,VWS V14.01,2013-07-08 16:47:00,
2013-07-08 12:52:00,79.0,63.1,30.19,WSW,256,0.0,0.0,58,0.00,,---,0.04,VWS V14.01,2013-07-08 16:52:00,
2013-07-08 12:58:00,79.2,62.6,30.16,WSW,246,0.0,3.2,57,0.00,,---,0.04,VWS V14.01,2013-07-08 16:58:00,
2013-07-08 13:03:00,79.2,60.5,30.16,NNW,333,4.5,5.8,53,0.00,,---,0.04,VWS V14.01,2013-07-08 17:03:00,
2013-07-08 13:08:00,79.0,61.8,30.16,NW,307,0.0,4.5,56,0.00,,---,0.04,VWS V14.01,2013-07-08 17:08:00,
2013-07-08 13:13:00,79.3,62.1,30.16,NNE,12,3.2,5.2,56,0.00,,---,0.04,VWS V14.01,2013-07-08 17:13:00,
2013-07-08 13:18:00,79.5,62.3,30.16,North,0,8.4,8.4,56,0.00,,---,0.04,VWS V14.01,2013-07-08 17:18:00,
2013-07-08 13:24:00,80.1,63.5,30.16,West,259,0.0,3.2,57,0.00,,---,0.04,VWS V14.01,2013-07-08 17:24:00,
2013-07-08 13:29:00,80.4,63.1,30.16,North,353,3.9,4.5,56,0.00,,---,0.04,VWS V14.01,2013-07-08 17:29:00,
2013-07-08 13:34:00,80.6,62.5,30.16,NNW,346,5.8,5.8,54,0.00,,---,0.04,VWS V14.01,2013-07-08 17:34:00,
2013-07-08 13:39:00,81.0,62.1,30.16,West,260,0.0,5.2,53,0.00,,---,0.04,VWS V14.01,2013-07-08 17:39:00,
2013-07-08 13:45:00,81.3,62.5,30.16,WSW,238,0.0,0.0,53,0.00,,---,0.04,VWS V14.01,2013-07-08 17:45:00,
2013-07-08 13:50:00,81.5,61.9,30.16,NW,319,0.0,0.0,51,0.00,,---,0.04,VWS V14.01,2013-07-08 17:50:00,
2013-07-08 13:55:00,81.5,61.1,30.16,West,262,0.0,4.5,50,0.00,,---,0.04,VWS V14.01,2013-07-08 17:55:00,
2013-07-08 14:00:00,81.9,62.2,30.16,WSW,247,0.0,0.0,51,0.00,,---,0.04,VWS V14.01,2013-07-08 18:00:00,
2013-07-08 14:05:00,82.6,63.6,30.16,SW,224,5.2,5.8,53,0.00,,---,0.04,VWS V14.01,2013-07-08 18:05:00,
2013-07-08 14:10:00,83.1,62.6,30.16,SSW,201,0.0,0.0,50,0.00,,---,0.04,VWS V14.01,2013-07-08 18:10:00,
2013-07-08 14:16:00,83.1,61.8,30.16,West,270,0.0,0.0,49,0.00,,---,0.04,VWS V14.01,2013-07-08 18:16:00,
2013-07-08 14:22:00,82.6,61.3,30.16,SSW,198,0.0,5.2,49,0.00,,---,0.04,VWS V14.01,2013-07-08 18:22:00,
2013-07-08 14:27:00,82.2,61.0,30.16,South,176,5.8,5.8,49,0.00,,---,0.04,VWS V14.01,2013-07-08 18:27:00,
2013-07-08 14:32:00,81.7,60.5,30.16,SSW,196,3.2,4.5,49,0.00,,---,0.04,VWS V14.01,2013-07-08 18:32:00,
2013-07-08 14:37:00,81.5,61.1,30.16,SW,235,0.0,0.0,50,0.00,,---,0.04,VWS V14.01,2013-07-08 18:37:00,
2013-07-08 14:42:00,81.5,60.3,30.14,South,189,0.0,0.0,49,0.00,,---,0.04,VWS V14.01,2013-07-08 18:42:00,
2013-07-08 14:48:00,81.5,60.3,30.14,SSW,208,4.5,7.1,49,0.00,,---,0.04,VWS V14.01,2013-07-08 18:48:00,
2013-07-08 14:53:00,81.1,60.0,30.14,South,187,3.2,4.5,49,0.00,,---,0.04,VWS V14.01,2013-07-08 18:53:00,
2013-07-08 14:58:00,80.4,59.3,30.14,SW,232,3.2,5.2,49,0.00,,---,0.04,VWS V14.01,2013-07-08 18:58:00,
2013-07-08 15:03:00,79.9,58.8,30.14,SSW,194,0.0,0.0,49,0.00,,---,0.04,VWS V14.01,2013-07-08 19:03:00,
2013-07-08 15:08:00,79.7,59.5,30.14,SW,227,0.0,0.0,50,0.00,,---,0.04,VWS V14.01,2013-07-08 19:08:00,
2013-07-08 15:13:00,79.5,59.3,30.14,WSW,254,0.0,0.0,50,0.00,,---,0.04,VWS V14.01,2013-07-08 19:13:00,
2013-07-08 15:18:00,79.3,59.1,30.14,WSW,239,0.0,0.0,50,0.00,,---,0.04,VWS V14.01,2013-07-08 19:18:00,
2013-07-08 15:23:00,79.3,59.1,30.14,NNW,332,0.0,0.0,50,0.00,,---,0.04,VWS V14.01,2013-07-08 19:23:00,
2013-07-08 15:29:00,79.3,60.6,30.14,North,353,0.0,3.9,53,0.00,,---,0.04,VWS V14.01,2013-07-08 19:29:00,
2013-07-08 15:34:00,79.3,61.4,30.14,North,0,0.0,5.8,54,0.00,,---,0.04,VWS V14.01,2013-07-08 19:34:00,
2013-07-08 15:39:00,79.5,60.8,30.14,West,263,0.0,0.0,53,0.00,,---,0.04,VWS V14.01,2013-07-08 19:39:00,
2013-07-08 15:45:00,79.5,60.8,30.14,SW,227,0.0,0.0,53,0.00,,---,0.04,VWS V14.01,2013-07-08 19:45:00,
2013-07-08 15:50:00,79.0,60.3,30.14,North,353,8.4,8.4,53,0.00,,---,0.04,VWS V14.01,2013-07-08 19:50:00,
2013-07-08 15:55:00,78.3,59.7,30.14,NE,37,3.9,5.8,53,0.00,,---,0.04,VWS V14.01,2013-07-08 19:55:00,
2013-07-08 16:00:00,77.2,59.4,30.14,NNE,19,3.9,4.5,54,0.00,,---,0.04,VWS V14.01,2013-07-08 20:00:00,
2013-07-08 16:06:00,76.6,59.6,30.14,NNE,28,0.0,0.0,56,0.00,,---,0.04,VWS V14.01,2013-07-08 20:06:00,
2013-07-08 16:11:00,76.1,59.8,30.14,NE,43,3.2,3.2,57,0.00,,---,0.04,VWS V14.01,2013-07-08 20:11:00,
2013-07-08 16:17:00,75.7,60.1,30.14,WNW,297,0.0,0.0,58,0.00,,---,0.04,VWS V14.01,2013-07-08 20:17:00,
2013-07-08 16:22:00,75.4,60.4,30.14,NW,312,0.0,0.0,60,0.00,,---,0.04,VWS V14.01,2013-07-08 20:22:00,
2013-07-08 16:27:00,74.7,59.8,30.16,NNW,344,4.5,5.8,60,0.00,,---,0.04,VWS V14.01,2013-07-08 20:27:00,
2013-07-08 16:32:00,74.1,59.9,30.16,NE,40,11.0,11.0,61,0.00,,---,0.04,VWS V14.01,2013-07-08 20:32:00,
2013-07-08 16:37:00,73.6,60.0,30.16,NW,314,8.4,12.6,63,0.04,,---,0.08,VWS V14.01,2013-07-08 20:37:00,
2013-07-08 16:42:00,73.4,62.2,30.16,North,353,3.9,5.8,68,0.08,,---,0.12,VWS V14.01,2013-07-08 20:42:00,
2013-07-08 16:47:00,73.6,62.4,30.14,NNE,32,5.8,5.8,68,0.08,,---,0.12,VWS V14.01,2013-07-08 20:47:00,
2013-07-08 16:52:00,73.8,62.6,30.14,SSE,149,0.0,0.0,68,0.08,,---,0.12,VWS V14.01,2013-07-08 20:52:00,
2013-07-08 16:57:00,73.9,63.3,30.14,SE,132,5.8,5.8,70,0.08,,---,0.12,VWS V14.01,2013-07-08 20:57:00,
2013-07-08 17:02:00,74.1,64.6,30.14,East,101,4.5,7.8,72,0.08,,---,0.12,VWS V14.01,2013-07-08 21:02:00,
2013-07-08 17:08:00,74.5,65.5,30.14,SSE,148,0.0,3.2,74,0.08,,---,0.12,VWS V14.01,2013-07-08 21:08:00,
2013-07-08 17:13:00,74.8,66.4,30.14,SSE,163,3.9,5.2,75,0.08,,---,0.12,VWS V14.01,2013-07-08 21:13:00,
2013-07-08 17:19:00,74.8,66.9,30.14,SSE,168,3.2,4.5,76,0.08,,---,0.12,VWS V14.01,2013-07-08 21:19:00,
2013-07-08 17:25:00,75.0,67.1,30.14,SE,145,3.9,4.5,76,0.08,,---,0.12,VWS V14.01,2013-07-08 21:25:00,
2013-07-08 17:30:00,75.0,67.6,30.14,SE,143,0.0,0.0,78,0.08,,---,0.12,VWS V14.01,2013-07-08 21:30:00,
2013-07-08 17:35:00,75.6,68.7,30.14,SW,217,0.0,0.0,79,0.04,,---,0.12,VWS V14.01,2013-07-08 21:35:00,
2013-07-08 17:40:00,76.1,69.7,30.14,SSW,203,5.2,8.4,81,0.04,,---,0.12,VWS V14.01,2013-07-08 21:40:00,
2013-07-08 17:46:00,76.5,70.1,30.14,SE,145,5.2,5.2,81,0.00,,---,0.12,VWS V14.01,2013-07-08 21:46:00,
2013-07-08 17:50:00,77.0,70.1,30.14,SSW,201,5.8,7.1,79,0.00,,---,0.12,VWS V14.01,2013-07-08 21:50:00,
2013-07-08 17:56:00,77.4,69.9,30.14,SW,236,0.0,0.0,78,0.00,,---,0.12,VWS V14.01,2013-07-08 21:56:00,
2013-07-08 18:01:00,77.4,69.4,30.14,West,266,0.0,0.0,76,0.00,,---,0.12,VWS V14.01,2013-07-08 22:01:00,
2013-07-08 18:06:00,77.5,69.0,30.14,WSW,255,0.0,0.0,75,0.00,,---,0.12,VWS V14.01,2013-07-08 22:06:00,
2013-07-08 18:11:00,77.7,69.2,30.14,WSW,245,0.0,0.0,75,0.00,,---,0.12,VWS V14.01,2013-07-08 22:11:00,
2013-07-08 18:17:00,78.1,68.4,30.14,WSW,248,0.0,0.0,72,0.00,,---,0.12,VWS V14.01,2013-07-08 22:17:00,
2013-07-08 18:22:00,78.3,68.1,30.14,SW,229,0.0,3.9,71,0.00,,---,0.12,VWS V14.01,2013-07-08 22:22:00,
2013-07-08 18:27:00,78.3,66.9,30.14,SW,218,0.0,0.0,68,0.00,,---,0.12,VWS V14.01,2013-07-08 22:27:00,
2013-07-08 18:32:00,77.9,65.9,30.14,West,262,5.2,5.8,67,0.00,,---,0.12,VWS V14.01,2013-07-08 22:32:00,
2013-07-08 18:37:00,77.5,65.0,30.14,WSW,240,5.2,5.2,65,0.00,,---,0.12,VWS V14.01,2013-07-08 22:37:00,
2013-07-08 18:42:00,77.4,64.2,30.14,WSW,246,0.0,0.0,64,0.00,,---,0.12,VWS V14.01,2013-07-08 22:42:00,
2013-07-08 18:46:00,77.4,64.2,30.11,South,181,0.0,0.0,64,0.00,,---,0.12,VWS V14.01,2013-07-08 22:46:00,
2013-07-08 18:52:00,77.4,64.2,30.11,WSW,253,0.0,0.0,64,0.00,,---,0.12,VWS V14.01,2013-07-08 22:52:00,
2013-07-08 18:57:00,77.4,64.2,30.14,NW,307,0.0,3.9,64,0.00,,---,0.12,VWS V14.01,2013-07-08 22:57:00,
2013-07-08 19:02:00,77.4,63.6,30.14,SW,227,4.5,4.5,63,0.00,,---,0.12,VWS V14.01,2013-07-08 23:02:00,
2013-07-08 19:07:00,77.4,63.6,30.14,SW,224,0.0,0.0,63,0.00,,---,0.12,VWS V14.01,2013-07-08 23:07:00,
2013-07-08 19:12:00,77.4,63.6,30.14,WSW,245,0.0,0.0,63,0.00,,---,0.12,VWS V14.01,2013-07-08 23:12:00,
2013-07-08 19:17:00,77.4,63.0,30.14,SSW,201,0.0,0.0,61,0.00,,---,0.12,VWS V14.01,2013-07-08 23:17:00,
2013-07-08 19:22:00,77.4,63.0,30.14,SW,217,0.0,0.0,61,0.00,,---,0.12,VWS V14.01,2013-07-08 23:22:00,
2013-07-08 19:28:00,77.2,62.8,30.14,South,190,0.0,0.0,61,0.00,,---,0.12,VWS V14.01,2013-07-08 23:28:00,
2013-07-08 19:33:00,77.2,62.8,30.14,SW,229,0.0,4.5,61,0.00,,---,0.12,VWS V14.01,2013-07-08 23:33:00,
2013-07-08 19:38:00,77.0,62.6,30.14,West,265,0.0,0.0,61,0.00,,---,0.12,VWS V14.01,2013-07-08 23:38:00,
2013-07-08 19:43:00,77.2,62.8,30.14,WSW,242,0.0,0.0,61,0.00,,---,0.12,VWS V14.01,2013-07-08 23:43:00,
2013-07-08 19:48:00,77.2,62.8,30.14,South,183,3.9,3.9,61,0.00,,---,0.12,VWS V14.01,2013-07-08 23:48:00,
2013-07-08 19:54:00,77.0,62.6,30.14,SSW,194,3.2,5.8,61,0.00,,---,0.12,VWS V14.01,2013-07-08 23:54:00,
2013-07-08 19:59:00,76.8,62.4,30.14,WSW,245,0.0,0.0,61,0.00,,---,0.12,VWS V14.01,2013-07-08 23:59:00,
2013-07-08 20:05:00,76.8,62.4,30.14,SSW,199,0.0,3.9,61,0.00,,---,0.12,VWS V14.01,2013-07-09 00:05:00,
2013-07-08 20:12:00,76.5,62.1,30.14,SW,234,0.0,0.0,61,0.00,,---,0.12,VWS V14.01,2013-07-09 00:12:00,
2013-07-08 20:18:00,76.3,61.9,30.14,SW,232,0.0,0.0,61,0.00,,---,0.12,VWS V14.01,2013-07-09 00:18:00,
2013-07-08 20:23:00,76.1,61.8,30.14,WSW,240,0.0,0.0,61,0.00,,---,0.12,VWS V14.01,2013-07-09 00:23:00,
2013-07-08 20:28:00,75.9,61.6,30.14,SW,224,0.0,0.0,61,0.00,,---,0.12,VWS V14.01,2013-07-09 00:28:00,
2013-07-08 20:34:00,75.7,61.4,30.14,SW,219,0.0,0.0,61,0.00,,---,0.12,VWS V14.01,2013-07-09 00:34:00,
2013-07-08 20:40:00,75.6,61.2,30.14,SW,219,0.0,0.0,61,0.00,,---,0.12,VWS V14.01,2013-07-09 00:40:00,
2013-07-08 20:45:00,75.4,61.1,30.14,SW,219,0.0,0.0,61,0.00,,---,0.12,VWS V14.01,2013-07-09 00:45:00,
2013-07-08 20:50:00,75.4,61.1,30.14,SW,218,0.0,3.9,61,0.00,,---,0.12,VWS V14.01,2013-07-09 00:50:00,
2013-07-08 20:55:00,75.0,61.4,30.14,SSE,168,0.0,3.2,63,0.00,,---,0.12,VWS V14.01,2013-07-09 00:55:00,
2013-07-08 21:01:00,74.7,61.0,30.16,SSE,168,3.9,3.9,63,0.00,,---,0.12,VWS V14.01,2013-07-09 01:01:00,
2013-07-08 21:06:00,74.1,60.5,30.16,SSE,154,4.5,5.8,63,0.00,,---,0.12,VWS V14.01,2013-07-09 01:06:00,
2013-07-08 21:11:00,73.8,60.8,30.16,SSE,152,3.2,3.9,64,0.00,,---,0.12,VWS V14.01,2013-07-09 01:11:00,
2013-07-08 21:16:00,73.4,60.5,30.16,SSE,147,3.9,4.5,64,0.00,,---,0.12,VWS V14.01,2013-07-09 01:16:00,
2013-07-08 21:21:00,73.0,60.7,30.16,SSE,147,3.9,3.9,65,0.00,,---,0.12,VWS V14.01,2013-07-09 01:21:00,
2013-07-08 21:26:00,72.7,60.4,30.16,SSE,147,0.0,3.2,65,0.00,,---,0.12,VWS V14.01,2013-07-09 01:26:00,
2013-07-08 21:31:00,72.5,60.8,30.16,SSE,155,4.5,5.2,67,0.00,,---,0.12,VWS V14.01,2013-07-09 01:31:00,
2013-07-08 21:36:00,72.1,60.5,30.16,SSE,150,5.2,5.2,67,0.00,,---,0.12,VWS V14.01,2013-07-09 01:36:00,
2013-07-08 21:41:00,72.0,60.9,30.16,SSE,150,3.9,4.5,68,0.00,,---,0.12,VWS V14.01,2013-07-09 01:41:00,
2013-07-08 21:46:00,71.8,60.7,30.14,SSE,150,4.5,5.2,68,0.00,,---,0.12,VWS V14.01,2013-07-09 01:46:00,
2013-07-08 21:51:00,71.6,61.1,30.14,SSE,152,3.9,4.5,70,0.00,,---,0.12,VWS V14.01,2013-07-09 01:51:00,
2013-07-08 21:56:00,71.6,61.7,30.14,SSE,152,3.9,4.5,71,0.00,,---,0.12,VWS V14.01,2013-07-09 01:56:00,
2013-07-08 22:01:00,71.4,61.5,30.16,SE,144,5.2,5.2,71,0.00,,---,0.12,VWS V14.01,2013-07-09 02:01:00,
2013-07-08 22:06:00,71.2,61.9,30.16,SE,139,3.9,5.2,72,0.00,,---,0.12,VWS V14.01,2013-07-09 02:06:00,
2013-07-08 22:11:00,71.2,61.9,30.16,SSE,147,0.0,3.9,72,0.00,,---,0.12,VWS V14.01,2013-07-09 02:11:00,
2013-07-08 22:17:00,71.1,62.2,30.16,SE,146,3.9,3.9,74,0.00,,---,0.12,VWS V14.01,2013-07-09 02:17:00,
2013-07-08 22:22:00,70.9,62.1,30.16,SSE,149,0.0,0.0,74,0.00,,---,0.12,VWS V14.01,2013-07-09 02:22:00,
2013-07-08 22:27:00,70.9,62.6,30.16,SSE,148,0.0,3.2,75,0.00,,---,0.12,VWS V14.01,2013-07-09 02:27:00,
2013-07-08 22:33:00,70.7,62.4,30.16,SSE,149,0.0,0.0,75,0.00,,---,0.12,VWS V14.01,2013-07-09 02:33:00,
2013-07-08 22:38:00,70.5,62.2,30.16,SSE,154,3.9,3.9,75,0.00,,---,0.12,VWS V14.01,2013-07-09 02:38:00,
2013-07-08 22:44:00,70.3,62.6,30.16,SSE,154,3.9,4.5,76,0.00,,---,0.12,VWS V14.01,2013-07-09 02:44:00,
2013-07-08 22:50:00,70.2,62.4,30.16,SSE,154,3.9,4.5,76,0.00,,---,0.12,VWS V14.01,2013-07-09 02:50:00,
2013-07-08 22:55:00,70.0,62.8,30.16,SSE,149,4.5,4.5,78,0.00,,---,0.12,VWS V14.01,2013-07-09 02:55:00,
2013-07-08 23:01:00,69.8,62.6,30.16,SSE,147,0.0,0.0,78,0.00,,---,0.12,VWS V14.01,2013-07-09 03:01:00,
2013-07-08 23:07:00,69.8,62.6,30.16,SSE,147,0.0,0.0,78,0.00,,---,0.12,VWS V14.01,2013-07-09 03:07:00,
2013-07-08 23:12:00,69.6,62.9,30.16,South,177,0.0,3.9,79,0.00,,---,0.12,VWS V14.01,2013-07-09 03:12:00,
2013-07-08 23:18:00,69.4,62.7,30.16,SE,146,5.8,5.8,79,0.00,,---,0.12,VWS V14.01,2013-07-09 03:18:00,
2013-07-08 23:23:00,69.4,63.2,30.16,SE,143,0.0,3.2,81,0.00,,---,0.12,VWS V14.01,2013-07-09 03:23:00,
2013-07-08 23:28:00,69.3,63.0,30.16,SE,143,0.0,0.0,81,0.00,,---,0.12,VWS V14.01,2013-07-09 03:28:00,
2013-07-08 23:33:00,69.3,63.0,30.16,SE,143,0.0,0.0,81,0.00,,---,0.12,VWS V14.01,2013-07-09 03:33:00,
2013-07-08 23:39:00,69.3,63.5,30.16,SE,137,3.9,4.5,82,0.00,,---,0.12,VWS V14.01,2013-07-09 03:39:00,
2013-07-08 23:44:00,69.1,63.4,30.16,SE,135,4.5,4.5,82,0.00,,---,0.12,VWS V14.01,2013-07-09 03:44:00,
2013-07-08 23:50:00,68.9,63.2,30.16,SSE,149,5.2,5.8,82,0.00,,---,0.12,VWS V14.01,2013-07-09 03:50:00,
2013-07-08 23:55:00,68.9,63.2,30.16,South,178,0.0,3.2,82,0.00,,---,0.12,VWS V14.01,2013-07-09 03:55:00,